Página principal
METAR-TAF:

METAR-TAF

Aeroportos :

Kemmerer, Wyoming, Estados Unidos

latitude: 41-49-27N, longitude: 110-33-25W, altura: 2220 m

Observação actual do tempo

O boletim foi feito há 8 minutos, às 15:35 UTC
Vento 6 kt de oeste
Temperatura -15°C
Humidade 85%
Pressão 1016 hPa
Visibilidade: 8.0 km
Céu limpo
neve fraca

METAR: KEMM 231535Z AUTO 26006KT 5SM -SN CLR M15/M17 A3001 RMK AO2

Hora: 08:43 (15:43 UTC)


TAF: em falta

Observações e previsões do tempo de mais de 4000 aeroportos (mensagens METAR e TAF).

As estações disponíveis são os pontos amarelos e vermelhos sobre o mapa.

Mova o rato sobre o mapa para ver o nome da estação.

Depois clique no ponto para visualizar as observações e previsões meteorológicas.

Para alterar o mapa : clique nos botões verdes com uma cruz preta para aumentar o zoom; no botão verde com uma pitada de zoom; ou nas setas verdes para mapas adjacentes.


METAR-TAF: